Theta_e
322 322 321 322 324 325 328 329 327 328 328 322 322 323 323 323 325 325 325 327 331 331 331 332 333 332 333 334 333 336 339 340 341 342 345 344 338 339 340 339 341 342 343 343 339 337 335 334 336 335 335 336 336 337 340 341 340 341 341 341 341 339 339 337 335 334 333 331 331 331 331 331 331 331 331 331 332 332 332 332 332 332 332 332 332 332 332 332 331 329 328 329 329 328 328 328 327
323 324 323 323 324 326 330 328 324 325 324 320 322 324 323 323 326 327 330 333 334 331 331 333 333 333 332 333 331 335 341 340 339 341 341 339 338 339 339 340 340 342 343 342 340 337 336 335 335 335 332 333 334 336 339 340 340 340 340 341 341 340 340 338 336 333 331 328 329 332 331 331 331 331 331 331 332 332 332 332 331 331 332 332 331 332 332 331 330 330 329 327 327 327 327 327 326
326 327 326 325 325 327 330 328 323 320 321 319 321 325 326 327 329 330 331 332 332 331 333 332 333 333 331 335 332 336 343 340 338 338 338 338 339 338 339 340 340 342 342 342 341 339 338 335 335 334 331 330 332 336 337 338 340 340 340 341 341 340 339 338 336 333 330 327 328 331 330 330 331 331 331 332 332 331 331 330 331 332 332 332 332 332 331 331 330 330 329 328 327 327 326 326 326
328 328 326 326 328 329 331 330 326 321 319 319 319 325 328 329 330 330 330 330 331 331 332 331 334 333 332 336 332 336 342 339 339 338 338 338 338 339 339 340 340 341 342 342 341 341 340 337 336 333 331 330 330 334 335 336 338 339 339 340 340 339 339 338 336 333 330 328 328 330 331 331 332 332 331 332 331 331 330 331 332 332 331 332 332 332 331 330 330 330 329 328 327 327 326 326 326
328 328 325 325 329 329 329 330 328 323 320 320 320 325 329 328 330 330 330 331 330 331 331 330 335 334 332 333 333 338 340 339 340 339 338 338 338 338 339 340 340 341 341 342 342 342 341 339 336 333 331 331 331 331 333 335 337 338 338 339 338 338 338 338 336 334 330 330 331 331 332 332 332 332 330 330 330 330 331 331 331 330 330 331 331 331 330 329 330 329 329 328 327 327 326 326 325
328 327 325 325 329 327 327 327 325 322 322 326 324 325 328 328 330 330 330 331 331 332 330 330 333 332 332 332 335 338 338 340 340 339 339 338 338 338 340 340 340 341 341 341 342 342 341 339 336 334 332 331 330 330 331 333 336 337 337 336 336 336 337 337 336 334 331 331 332 332 333 332 331 330 329 329 329 330 331 330 329 330 330 331 331 330 330 330 329 329 329 328 326 326 326 326 325
328 328 328 328 329 327 329 327 326 324 323 327 327 325 327 328 330 329 330 332 331 331 330 331 330 329 333 335 337 337 337 340 339 339 339 338 338 339 340 339 340 340 340 340 342 341 340 339 336 335 333 331 330 329 330 331 335 336 335 335 333 334 333 334 334 333 332 332 333 333 333 333 330 330 330 329 329 330 331 329 328 330 330 330 330 330 330 329 329 329 328 327 326 326 326 325 324
328 328 330 331 331 331 331 330 330 328 323 324 326 326 327 328 330 328 329 330 328 329 329 328 327 330 332 332 337 338 337 339 339 339 339 338 338 339 339 339 339 339 340 340 341 341 340 338 336 335 333 331 330 329 330 331 334 335 334 334 333 333 331 331 333 333 332 332 334 334 334 333 331 329 329 329 328 329 330 329 329 329 330 330 329 329 329 329 329 328 327 327 326 325 325 324 323
328 328 330 332 334 333 331 331 332 328 324 324 325 326 328 327 329 329 328 327 325 325 328 327 328 331 330 331 338 338 336 338 338 339 338 338 338 339 339 338 339 339 339 340 340 341 340 338 336 335 333 332 331 329 330 330 332 334 334 333 333 334 331 330 332 332 332 331 334 335 335 334 331 330 329 327 327 329 329 329 329 329 329 329 329 329 328 329 328 328 327 327 325 324 324 323 322
329 329 332 334 334 332 329 331 331 328 326 324 324 325 327 327 327 329 328 326 322 323 327 326 326 327 327 334 340 338 336 336 337 339 339 339 338 338 339 338 339 339 340 340 340 340 340 338 336 335 333 332 331 329 329 328 330 334 334 333 333 333 331 331 332 332 332 332 333 335 335 334 333 331 330 328 327 328 328 329 329 329 329 328 329 328 328 328 328 328 326 325 324 323 323 321 321
331 331 333 334 332 329 328 330 331 329 325 324 325 325 326 327 326 328 329 326 321 325 328 323 324 326 324 334 341 338 336 337 337 339 339 339 338 338 338 338 339 339 340 340 340 340 339 338 337 335 333 333 331 330 328 326 329 333 333 333 332 332 332 332 332 332 332 333 333 335 335 335 334 333 330 328 328 328 327 328 329 327 328 328 328 328 328 328 327 327 325 324 323 322 321 320 320
334 335 335 335 333 332 331 332 332 329 326 324 325 326 327 327 326 326 327 326 321 325 326 323 326 326 323 335 340 337 337 339 338 339 339 339 338 339 338 338 339 339 340 339 340 341 339 338 336 335 334 333 332 331 328 327 330 331 331 332 332 333 333 332 332 331 331 331 332 334 334 334 333 333 332 330 330 329 327 328 328 326 326 327 327 327 327 328 327 326 324 323 322 321 320 320 320
334 336 336 335 335 336 335 334 334 330 328 326 326 327 328 327 327 326 325 324 322 323 324 323 324 324 325 336 340 337 338 339 339 339 339 339 338 339 338 339 339 339 340 339 339 340 340 338 336 335 334 333 333 332 329 327 330 330 330 332 332 333 333 332 331 331 330 329 330 331 332 333 333 333 332 331 331 330 328 328 326 324 325 326 327 327 326 327 326 324 322 322 321 320 320 320 320
333 335 334 335 336 336 336 335 335 331 329 329 328 328 328 326 327 326 324 324 324 326 327 323 322 324 324 332 340 339 339 339 339 339 339 339 338 338 338 339 339 339 340 339 339 340 340 339 338 336 335 334 332 332 331 329 329 328 328 331 332 332 332 332 332 331 330 328 328 328 328 330 333 333 332 332 331 330 329 328 326 324 325 326 326 326 326 326 325 323 321 321 321 320 320 320 320
332 333 333 335 335 335 336 335 335 333 329 330 329 328 328 327 327 326 325 325 326 327 326 323 325 328 322 329 342 341 339 339 339 339 339 339 338 338 339 339 338 339 339 339 340 340 340 339 339 338 336 335 333 333 333 331 330 329 328 329 331 332 332 332 332 332 331 329 328 327 325 326 330 331 332 332 331 330 329 328 327 325 325 325 325 325 325 325 323 321 320 320 320 320 320 320 320
332 331 332 334 334 333 335 336 336 334 329 329 329 328 329 328 327 327 325 326 327 325 323 325 325 327 326 333 342 340 338 339 338 339 339 339 338 338 339 339 338 338 339 338 339 339 339 339 339 338 337 336 335 335 335 333 332 330 329 329 331 331 331 331 331 331 331 330 329 327 325 325 327 329 330 330 330 330 328 328 327 325 325 324 325 324 323 324 322 319 319 320 320 321 321 321 321
331 332 333 333 333 333 335 336 335 332 328 327 328 327 328 328 326 325 325 325 326 324 323 326 324 324 330 333 338 339 339 338 338 339 339 339 339 338 339 339 338 338 338 338 339 339 338 338 338 338 338 337 336 336 336 335 333 332 330 329 330 330 330 330 330 330 330 330 329 327 325 326 327 327 328 329 329 329 328 327 327 326 324 324 324 323 322 323 322 319 320 321 321 321 321 321 321
333 334 334 333 333 333 333 333 332 330 327 326 327 326 326 327 326 325 325 325 324 325 324 326 326 326 330 332 336 339 338 338 338 338 338 338 338 338 338 338 339 339 339 338 338 339 338 338 338 338 338 337 337 336 336 336 335 333 331 329 329 329 329 330 330 330 329 329 329 327 326 326 327 328 329 329 329 329 328 327 327 326 325 324 322 322 321 322 322 319 320 321 321 321 322 322 322
333 336 335 334 334 333 329 329 327 326 325 324 325 325 325 326 326 324 324 324 324 326 325 326 327 327 330 331 335 339 338 338 338 338 338 337 337 337 338 338 338 338 339 338 338 338 338 338 338 338 338 337 336 336 336 336 335 335 332 330 327 327 328 329 329 329 329 328 327 327 326 326 327 328 329 329 329 329 328 328 327 325 326 325 323 321 320 321 321 319 320 321 321 322 323 323 323
332 336 337 336 334 332 329 327 326 323 323 323 323 323 323 324 324 324 323 325 324 326 326 326 327 326 329 329 332 338 338 338 338 338 338 338 338 337 337 337 337 338 338 338 337 337 338 337 338 337 337 337 336 336 336 335 335 335 333 331 329 328 328 328 329 329 329 328 328 328 326 325 326 327 328 328 329 328 327 328 327 326 326 326 325 322 319 318 319 319 320 320 322 323 323 323 323
332 334 335 335 332 333 330 326 324 321 322 322 322 321 322 323 324 324 324 325 325 325 326 325 327 325 328 329 330 335 338 339 338 338 338 338 338 337 338 337 337 337 337 337 337 337 337 337 337 337 337 336 336 336 335 335 334 334 333 332 331 331 330 329 329 329 329 329 329 328 326 326 326 325 326 326 326 326 326 327 327 325 325 326 326 324 320 317 318 319 320 320 322 323 323 323 322
331 332 333 333 332 332 328 323 321 321 322 322 323 321 322 322 323 324 324 325 325 324 323 324 327 326 327 330 330 332 335 338 338 338 338 338 338 338 337 337 337 337 337 336 336 336 336 336 337 337 336 336 336 335 335 334 334 334 334 332 332 332 332 331 330 329 330 330 331 329 326 327 327 326 325 324 323 323 324 325 325 324 324 325 326 325 321 317 317 319 320 320 322 324 323 323 322
332 332 331 332 331 331 328 322 320 320 323 323 322 321 321 322 322 323 323 324 324 323 322 322 325 328 329 330 331 332 333 335 338 338 338 338 338 338 337 337 337 337 337 336 336 336 335 336 336 336 336 336 336 335 335 335 334 334 333 333 332 332 332 332 331 330 331 331 331 329 326 326 327 327 325 324 323 322 322 324 325 324 324 325 325 324 321 319 319 319 321 322 323 324 323 323 322
333 332 331 331 330 330 330 324 320 320 322 322 320 319 320 322 322 323 323 323 323 323 322 321 322 325 328 331 332 333 332 332 335 337 337 338 338 337 337 336 336 336 336 336 335 335 335 336 335 335 336 336 336 335 335 335 334 334 333 333 333 332 332 332 331 330 331 331 331 330 327 326 327 327 324 323 323 322 323 325 325 324 324 324 324 323 321 320 322 320 322 323 323 324 323 323 322
333 332 330 330 330 329 329 325 322 322 323 321 320 319 321 322 322 321 322 323 322 323 322 321 321 322 324 328 332 333 331 330 332 335 335 336 336 337 337 336 336 336 336 335 335 334 334 335 335 335 335 336 336 335 334 335 334 333 333 333 333 333 332 332 332 331 330 330 330 329 327 326 326 326 324 323 323 322 322 323 323 323 323 323 322 323 322 321 322 321 322 323 323 323 323 323 323
333 331 330 330 330 328 329 327 324 324 325 323 322 322 324 324 322 321 321 321 322 322 323 322 321 322 321 324 328 330 330 330 330 333 333 334 335 335 336 336 336 335 335 336 335 334 334 334 334 334 334 335 335 335 334 334 334 334 333 333 333 333 332 332 331 331 330 329 329 328 327 326 325 324 324 323 323 322 321 321 321 322 322 322 322 323 323 322 322 322 321 322 322 322 323 323 323
331 330 330 329 330 329 329 328 326 326 326 325 324 325 327 325 322 323 324 322 322 322 323 323 322 323 322 323 324 324 325 327 329 331 332 333 334 334 335 336 336 335 335 335 335 335 334 334 333 333 334 334 335 335 334 334 334 334 333 333 333 333 333 332 331 331 330 329 328 328 327 326 324 324 324 323 323 322 321 321 320 320 320 321 322 322 323 322 321 322 321 320 321 322 323 323 323
330 330 330 330 330 330 328 326 326 326 325 325 325 325 327 326 323 324 325 324 323 322 322 322 322 322 322 323 323 323 323 324 326 329 331 333 334 334 335 336 336 336 335 335 335 335 334 334 333 333 333 334 334 334 334 333 333 333 333 333 333 332 333 332 331 331 329 329 328 327 326 325 324 323 324 324 323 323 322 321 321 320 319 319 320 321 323 322 321 321 321 320 320 322 323 323 323
329 329 330 331 330 331 329 325 326 326 326 325 324 326 327 326 324 323 324 324 323 322 322 322 322 321 322 322 323 324 324 323 324 327 329 331 333 334 334 334 335 336 336 335 335 335 335 334 333 332 332 333 334 334 334 333 333 333 333 333 333 332 332 332 332 330 329 329 328 327 326 326 324 323 324 324 324 323 323 322 322 321 320 319 319 320 321 321 321 321 320 320 320 321 322 322 323
329 329 330 330 330 331 328 326 327 327 327 325 326 329 330 328 327 325 324 325 324 324 323 323 324 322 323 323 324 325 325 324 324 325 327 329 331 334 334 334 334 335 335 335 335 335 334 334 333 333 332 332 334 334 333 333 333 332 332 332 333 332 333 332 332 331 329 329 329 328 327 327 326 324 324 324 324 324 323 323 322 321 320 319 319 320 320 320 321 320 320 320 320 321 322 322 322
329 330 330 330 331 331 329 328 328 327 328 325 326 330 331 330 330 329 327 326 325 326 325 325 326 325 325 326 325 325 324 324 324 324 326 328 329 331 333 334 334 334 334 335 334 333 333 333 333 333 332 332 333 333 333 333 332 332 331 331 332 333 332 332 332 331 329 329 330 329 327 327 327 326 324 324 324 324 324 323 323 322 321 320 319 320 320 320 320 320 320 320 320 320 321 319 318
330 333 333 332 331 331 330 330 328 328 328 324 327 330 331 330 331 330 329 327 325 327 327 327 327 326 327 328 327 327 325 323 325 326 326 327 329 329 330 332 333 333 333 333 332 332 333 333 332 332 332 332 332 333 333 333 332 332 331 331 332 332 332 332 332 331 330 329 329 329 328 327 327 327 325 324 324 324 324 323 323 323 322 321 320 320 320 320 319 319 320 320 320 320 319 317 317
330 332 333 332 332 332 332 331 329 329 328 325 327 330 331 331 330 330 330 329 327 327 328 328 329 328 329 330 329 330 329 326 325 326 325 327 328 328 328 329 331 332 332 332 332 332 333 333 333 332 331 332 331 333 333 332 332 331 332 331 331 331 332 332 332 331 330 329 329 329 328 327 327 327 327 325 324 324 324 323 323 323 323 323 322 321 320 319 319 319 320 320 319 319 319 319 319
333 332 333 333 332 332 332 332 330 329 329 327 327 329 330 331 331 330 330 330 329 328 329 329 330 330 331 331 331 330 330 330 328 324 324 325 326 327 327 327 329 330 331 331 332 332 332 332 333 332 331 331 331 332 333 333 332 331 331 331 331 330 330 331 332 331 331 329 329 329 328 328 327 327 327 327 326 324 324 323 323 323 324 323 323 322 321 320 320 320 319 319 320 320 320 320 321
335 333 334 334 331 332 333 332 331 329 329 330 330 329 329 330 329 330 330 330 330 330 331 331 330 330 331 331 331 331 330 331 329 325 324 324 324 326 327 327 329 329 329 330 330 331 332 332 333 332 332 332 331 332 332 332 332 331 331 331 331 330 330 330 331 331 331 330 329 328 328 328 327 326 326 327 327 325 324 324 323 323 323 323 323 323 322 321 320 320 320 321 320 320 320 321 322
334 335 336 335 331 330 333 333 331 329 331 332 332 332 330 330 329 329 330 330 330 330 330 330 331 330 330 331 331 331 332 331 327 325 326 326 325 325 325 326 328 328 329 328 330 331 332 333 333 333 333 332 332 332 332 332 332 331 331 331 331 331 330 330 330 331 331 330 329 328 327 328 327 326 326 326 327 327 325 324 324 323 323 324 323 323 323 322 321 320 321 321 321 320 320 321 321
336 336 336 336 334 332 332 333 331 329 332 333 333 333 332 331 331 330 330 331 331 331 331 330 330 330 329 331 332 332 332 330 327 326 327 327 326 326 325 325 326 328 329 328 329 330 331 332 333 333 333 333 332 332 332 333 333 332 331 331 330 330 330 330 330 330 330 330 329 328 327 327 327 327 326 325 326 327 326 325 324 323 323 323 324 323 323 323 322 321 321 320 320 321 321 321 321
336 334 334 337 337 334 332 332 331 329 332 333 333 333 333 332 331 331 331 332 331 331 331 331 330 330 330 331 332 333 332 331 330 329 327 328 328 327 327 326 326 327 329 329 329 329 330 331 332 333 333 333 332 332 332 332 332 332 331 331 330 330 330 330 330 329 329 329 329 329 328 327 326 326 327 326 325 326 326 326 325 324 323 323 324 324 323 322 323 322 321 320 321 322 322 322 322
337 335 333 336 337 335 334 330 327 327 330 332 333 332 332 331 330 329 329 330 331 330 330 331 330 330 330 331 331 332 333 333 334 332 328 327 328 328 328 328 327 327 328 328 329 329 329 330 331 331 332 332 332 332 332 332 332 332 331 331 330 330 330 330 329 329 329 328 328 328 328 327 326 326 327 327 326 326 326 326 326 324 323 323 323 323 323 322 322 323 322 321 322 322 322 322 322
338 336 332 334 336 336 334 330 327 326 328 329 330 331 329 328 328 327 327 327 328 329 329 329 330 331 330 330 331 331 333 334 334 333 330 327 327 327 328 327 327 326 326 326 327 328 329 330 330 330 331 331 332 332 331 331 331 332 331 331 330 330 330 330 330 329 329 328 328 328 327 327 327 326 327 327 327 327 326 326 326 325 324 323 323 323 323 322 322 323 322 322 322 322 321 321 321
337 335 332 333 335 335 334 332 328 326 328 328 329 331 330 327 328 326 325 326 325 326 327 327 328 330 330 331 333 332 333 333 333 332 332 327 325 327 327 327 327 326 325 325 325 326 328 330 330 330 330 331 331 331 331 331 331 332 332 331 331 330 330 330 330 329 329 328 327 327 327 326 327 327 327 328 328 327 326 326 326 326 324 324 323 323 322 321 321 322 322 322 322 321 321 321 321
336 334 331 332 335 335 333 331 329 330 332 329 328 334 332 328 328 327 325 325 325 325 325 325 326 327 329 331 331 332 333 334 332 330 330 327 325 326 327 327 327 326 326 325 324 324 325 328 330 330 330 330 331 331 331 331 331 332 332 331 331 330 330 329 329 329 328 327 327 326 326 326 326 327 327 328 329 328 327 326 326 326 325 324 324 323 322 321 321 322 322 322 322 321 321 321 321
336 333 330 330 331 333 332 330 332 334 333 328 327 332 332 328 327 326 325 325 324 324 325 326 326 326 328 331 330 332 333 333 333 332 330 328 326 326 327 327 327 327 326 326 325 325 324 325 327 329 330 330 330 331 331 331 331 331 331 331 330 330 330 329 329 329 328 327 327 326 326 326 327 327 328 329 329 328 328 326 326 326 325 325 324 324 323 322 321 321 321 321 321 321 320 320 321
335 329 328 329 329 331 332 330 332 332 330 328 326 329 332 330 327 325 325 325 323 323 323 326 328 328 329 330 331 332 332 331 333 334 334 331 327 325 326 327 326 326 326 326 325 325 324 324 325 327 329 329 329 330 330 331 330 331 331 331 331 330 330 330 329 329 328 328 327 327 327 326 327 327 327 329 329 328 328 327 326 326 325 325 325 324 323 323 322 321 321 321 320 320 320 319 319
332 328 327 327 327 329 330 330 331 330 330 332 329 329 333 330 326 326 325 323 324 323 321 324 329 331 330 329 329 329 329 330 332 334 337 334 327 326 327 326 326 325 325 325 325 325 324 324 324 325 327 328 329 330 330 330 330 330 330 331 331 331 330 330 329 329 328 328 328 327 327 327 327 327 327 328 329 329 328 328 327 326 326 326 325 325 324 323 323 322 321 321 320 320 320 319 318
328 327 326 325 326 328 329 332 332 331 332 333 330 328 332 330 326 328 328 324 324 324 323 323 325 328 330 328 329 329 328 331 334 335 337 332 326 327 326 325 324 324 323 323 324 324 324 324 324 324 325 327 329 329 330 330 330 330 330 331 331 331 330 330 330 329 329 328 328 328 328 327 327 327 326 326 327 328 328 328 328 327 326 326 326 326 325 324 323 323 322 322 321 321 320 320 319
327 329 329 328 329 329 330 332 332 333 334 332 329 327 330 330 329 328 329 327 325 326 325 325 324 326 329 328 329 330 328 330 335 337 333 327 324 325 324 323 323 322 322 322 322 323 323 323 323 323 324 325 327 329 329 330 330 330 330 330 330 331 331 330 330 330 329 329 328 328 328 328 328 327 327 327 327 327 328 328 328 327 327 327 327 327 326 326 325 324 324 323 323 322 321 321 320
329 331 330 329 330 330 329 330 331 334 335 332 328 328 329 331 330 327 327 326 326 327 326 326 326 327 329 329 329 329 328 329 333 338 334 329 327 325 323 323 322 322 322 321 321 321 321 322 321 322 322 323 326 328 329 330 330 330 330 329 330 330 331 330 330 330 329 329 329 329 329 329 328 328 328 328 327 327 327 328 328 327 327 326 327 327 327 327 326 325 325 325 324 323 322 322 321
329 329 329 328 329 330 329 330 331 333 333 331 329 329 331 330 327 325 326 325 325 327 326 326 325 325 326 328 327 327 329 330 331 335 334 334 334 327 323 324 323 323 323 322 322 321 321 321 320 321 320 321 323 325 328 329 330 330 330 329 329 329 330 330 330 330 330 329 329 329 329 329 329 329 328 328 328 327 327 327 328 327 327 327 326 326 327 327 327 326 326 326 325 324 324 323 322
327 326 326 327 327 329 330 331 332 332 333 333 330 330 333 332 327 325 325 324 324 325 326 327 327 327 327 327 327 329 331 330 331 333 334 337 335 327 323 325 324 323 323 322 321 321 321 321 320 320 320 319 320 323 326 328 329 330 330 329 329 328 329 329 330 330 330 330 330 329 329 329 329 329 329 328 328 328 328 328 328 328 327 327 327 326 327 327 327 327 326 326 326 325 325 324 324
324 324 324 324 325 327 329 330 332 332 332 332 331 332 334 333 327 323 323 324 325 324 324 327 328 328 328 328 328 329 330 329 331 334 336 335 330 324 324 325 323 321 321 320 320 319 319 320 320 319 319 319 319 320 323 326 328 329 330 329 329 329 328 328 329 329 330 330 330 329 329 329 329 329 329 329 328 328 328 328 328 328 328 327 327 327 327 327 327 327 327 326 326 325 325 325 325
323 324 325 324 324 326 327 329 330 329 329 330 331 332 331 327 323 322 322 325 325 324 325 326 327 327 327 328 330 331 331 331 331 333 335 334 326 323 324 324 321 319 318 318 318 317 317 317 318 318 318 318 318 319 320 322 325 327 329 329 329 329 329 328 328 328 329 329 330 329 329 329 329 329 329 329 329 329 328 328 328 328 328 327 327 327 326 327 327 327 327 326 326 326 326 325 325
324 325 326 325 327 328 328 326 325 325 327 328 329 329 326 323 324 324 324 325 324 324 325 325 326 327 326 329 332 333 334 333 332 333 336 334 326 323 323 322 320 317 316 316 315 315 315 314 315 316 316 316 316 317 318 319 322 324 326 328 329 329 329 328 328 328 327 328 329 329 329 329 329 329 329 329 329 329 328 328 328 328 328 327 327 327 327 327 327 327 327 327 326 326 326 326 326
324 324 324 323 326 329 327 326 326 326 326 328 329 329 328 327 329 328 325 325 325 324 325 324 325 326 327 330 333 334 335 334 333 334 334 332 325 322 322 320 318 316 315 314 314 314 314 313 313 313 313 314 314 315 316 317 319 321 323 326 327 328 329 328 328 328 327 327 328 328 328 329 329 329 329 329 329 329 329 329 328 328 328 327 327 327 327 327 327 327 327 327 327 326 326 326 326
324 324 322 323 327 328 325 325 328 328 327 328 331 330 329 328 328 326 324 324 324 324 324 324 324 324 327 330 333 334 334 333 333 332 332 330 324 320 320 318 316 316 315 315 314 315 314 314 313 312 312 313 312 313 313 314 316 318 320 323 325 327 328 328 328 328 327 327 327 327 328 328 328 328 329 329 329 329 329 329 329 328 328 327 327 327 327 327 326 326 326 326 326 326 326 326 326
323 324 322 323 328 328 325 325 328 329 327 327 329 330 329 326 323 322 323 322 322 322 322 323 324 325 327 330 332 334 333 333 333 330 330 329 322 318 318 317 316 316 315 315 315 315 315 315 314 314 313 313 313 313 312 312 313 315 317 320 322 325 327 327 328 328 328 327 327 327 327 327 327 327 328 328 329 329 329 329 329 329 328 328 327 327 327 327 326 326 326 326 326 326 326 325 325
322 324 324 324 325 325 326 325 326 327 327 326 327 327 327 324 321 321 322 321 322 322 322 324 324 325 326 329 331 331 331 332 332 328 328 327 320 317 318 316 316 317 317 316 316 316 316 316 315 314 313 313 313 313 313 312 313 313 314 316 319 322 325 326 327 327 327 327 327 327 327 327 327 327 327 328 328 329 329 329 329 329 328 328 327 327 327 326 326 326 326 325 325 325 325 325 325
321 322 323 323 322 323 326 326 325 325 325 327 327 326 325 323 320 320 321 320 321 321 322 324 324 324 325 326 326 327 329 331 329 325 326 327 320 317 317 315 316 318 317 316 317 316 317 317 316 315 314 314 314 313 313 312 312 313 313 314 316 319 322 324 326 327 327 327 327 327 327 327 327 327 327 327 328 328 328 328 328 329 329 328 328 327 327 326 326 326 325 325 325 325 325 325 324
Wind_Speed
21 21 21 19 17 15 11 4 2 1 2 3 1 4 3 4 2 3 5 3 2 5 4 4 4 4 3 3 3 8 10 7 4 2 1 5 11 10 9 15 16 16 15 10 11 12 11 11 10 9 8 7 7 8 8 8 10 10 9 9 9 9 10 11 11 11 11 10 11 12 12 12 12 12 12 12 12 12 12 12 12 12 12 12 12 12 13 12 13 13 13 13 12 13 13 13 13
21 22 21 20 16 8 3 2 2 3 3 2 4 4 3 2 1 5 7 6 5 4 4 5 4 4 3 3 2 4 9 9 8 5 4 12 13 9 11 15 14 15 14 9 10 12 10 10 9 8 7 7 7 8 9 8 9 9 9 8 8 9 10 11 10 10 10 10 11 12 12 11 12 12 12 12 12 12 12 12 12 12 11 12 12 12 12 11 11 11 12 12 12 12 13 12 12
21 22 20 19 12 4 2 2 2 4 3 1 4 2 3 4 5 9 10 8 6 4 4 3 3 3 3 3 2 2 6 8 10 7 6 13 11 9 12 13 14 14 13 11 11 10 9 10 9 7 7 7 7 7 8 8 8 8 8 7 7 8 9 10 8 9 10 9 9 11 11 11 11 11 11 12 12 12 12 12 11 11 11 11 11 11 11 11 11 11 11 11 12 11 11 11 11
21 19 16 12 6 3 3 2 2 4 3 2 3 2 3 6 9 9 8 7 5 3 2 0 1 1 3 4 4 4 6 6 9 10 6 11 13 13 13 13 14 13 12 12 12 11 8 9 9 7 6 7 7 7 8 8 7 7 7 6 6 7 8 10 8 8 9 8 9 11 11 11 11 12 11 11 12 11 11 11 11 11 11 11 10 11 11 10 10 10 10 10 10 10 10 10 10
19 17 14 7 2 2 2 2 3 2 3 2 3 3 5 7 9 8 6 6 4 4 2 1 1 1 1 3 3 2 4 4 9 12 9 11 18 18 14 14 14 12 12 12 12 12 9 8 9 8 6 6 6 7 8 8 7 7 6 6 6 6 7 8 8 6 6 7 10 11 11 11 11 11 11 11 11 10 11 11 11 10 9 10 10 10 10 9 9 9 9 9 9 9 9 9 9
16 17 14 6 2 2 1 3 4 2 2 4 4 4 6 7 8 8 6 5 3 4 4 2 2 1 2 4 5 4 2 5 8 11 14 15 19 19 16 15 13 12 12 12 12 11 9 9 9 8 7 6 5 6 7 8 7 8 6 5 5 5 5 6 6 5 6 7 8 10 10 11 11 11 10 10 10 9 11 10 9 9 9 9 9 9 9 9 9 9 8 8 9 9 9 9 8
14 12 7 4 2 2 2 4 5 1 3 5 5 4 6 7 7 7 5 4 2 3 2 3 3 3 1 4 5 6 7 8 8 10 17 18 18 18 17 14 13 12 11 11 11 10 8 9 10 8 6 6 5 5 6 8 8 9 7 4 5 5 5 5 6 6 6 7 7 8 10 11 10 10 11 10 9 9 10 9 8 9 9 8 9 9 8 8 8 8 7 8 8 8 8 8 8
13 4 1 2 2 2 3 5 5 1 3 4 5 5 6 7 6 6 5 3 2 2 2 1 1 2 1 1 3 6 11 12 12 14 20 20 19 18 16 13 13 13 11 11 10 9 7 8 10 8 7 6 5 5 6 8 8 10 9 6 6 5 5 6 7 7 6 7 7 7 9 10 9 9 10 11 9 9 9 8 8 8 8 8 8 8 8 8 8 7 7 7 7 7 7 7 7
11 3 1 2 2 3 3 4 4 2 5 5 5 4 4 5 4 6 5 3 3 2 3 3 1 1 2 2 6 6 9 12 14 17 19 20 19 17 15 13 13 13 11 10 9 8 6 7 9 8 7 6 6 6 6 8 9 11 9 7 7 6 5 6 7 7 6 6 6 6 8 9 7 7 9 10 10 10 8 7 8 8 8 7 7 7 7 8 7 7 7 6 6 6 7 7 7
7 4 1 2 3 4 4 4 3 2 6 6 6 4 4 4 2 3 5 5 4 2 4 4 2 1 3 4 7 4 9 12 14 16 16 18 17 15 14 13 13 13 11 8 6 6 5 6 8 7 6 5 5 5 5 6 10 12 9 8 8 6 5 7 7 6 6 4 4 6 8 8 6 7 8 10 10 9 8 7 8 8 7 7 7 7 7 7 6 6 6 5 6 6 6 6 6
3 3 1 1 3 4 4 3 2 1 6 6 6 6 3 4 3 2 3 6 4 3 5 2 1 2 2 4 4 5 12 13 14 16 17 17 15 13 12 11 13 12 11 8 5 4 4 6 7 7 6 5 4 4 4 6 11 12 9 9 7 6 6 7 7 6 6 4 4 6 8 8 7 7 8 9 9 7 7 7 8 8 7 6 6 6 6 6 6 5 4 4 5 6 6 6 7
2 3 0 2 3 4 3 3 3 2 6 4 5 5 4 3 3 3 3 4 4 4 4 3 1 1 2 2 3 7 12 12 15 17 18 17 14 13 10 10 11 11 10 9 7 5 3 4 7 7 6 5 4 4 4 6 10 10 10 10 7 7 8 8 7 6 5 4 3 5 6 7 7 7 9 9 8 6 6 7 7 6 6 6 6 6 6 5 5 4 3 4 5 6 6 7 7
3 3 3 3 3 4 4 4 3 3 3 3 6 6 4 4 2 3 3 3 4 4 4 3 2 1 0 4 4 7 9 12 17 17 17 16 14 12 10 10 10 9 9 8 7 6 4 3 5 6 5 5 4 4 5 7 9 9 10 10 9 8 8 8 7 6 5 5 4 4 5 5 6 7 8 9 7 6 6 6 4 4 5 6 6 6 6 5 4 3 3 4 5 5 6 6 7
3 3 3 3 3 5 4 3 4 1 1 2 7 7 5 3 1 1 2 3 4 2 4 4 2 0 1 4 5 4 7 13 17 17 16 15 15 12 10 10 10 9 8 8 7 7 5 4 4 5 4 5 5 4 5 7 7 8 9 10 9 8 8 8 8 7 6 6 5 5 5 4 5 6 7 8 7 6 5 5 3 4 6 6 6 7 6 6 5 3 3 4 5 5 6 5 6
2 4 2 3 4 4 4 3 3 4 3 5 6 6 5 3 2 3 3 3 4 3 4 3 2 1 1 2 4 5 10 16 16 16 16 15 15 12 9 10 11 8 7 8 7 8 7 5 6 6 4 4 5 5 5 6 7 7 9 10 9 8 8 9 9 8 8 7 6 5 6 6 6 5 6 6 6 6 5 5 4 5 6 6 6 7 7 6 5 3 3 4 4 4 4 4 4
1 3 2 2 4 4 4 2 1 1 2 4 4 5 6 3 2 2 2 3 3 2 2 2 1 1 3 4 7 12 16 17 17 17 17 16 14 12 10 9 10 9 8 9 9 9 9 8 8 8 5 4 5 5 5 6 7 7 8 11 10 9 9 10 9 9 9 8 7 6 6 7 7 6 6 7 7 7 7 6 5 5 6 7 6 7 8 6 5 4 4 4 3 3 2 2 4
1 1 2 3 4 4 3 2 2 3 4 3 4 4 5 4 1 0 1 1 2 3 1 3 2 1 4 7 11 17 18 17 17 18 18 17 15 13 11 10 10 10 10 10 11 10 10 10 10 10 7 6 8 6 6 7 6 6 8 11 12 10 10 11 10 9 9 9 8 7 6 6 7 7 8 9 9 9 9 8 7 6 6 7 7 8 8 7 5 5 5 4 2 1 2 3 5
2 2 3 4 4 4 2 3 3 3 5 4 4 3 2 5 4 1 2 1 1 3 3 3 3 4 10 12 14 17 17 16 18 18 17 17 16 15 14 13 12 12 12 11 12 12 12 12 12 12 10 9 10 8 9 10 7 7 7 9 13 13 11 11 11 10 9 9 9 8 7 6 6 7 9 10 10 11 11 9 8 7 7 7 8 9 9 8 6 6 6 4 2 2 4 4 4
2 2 3 4 5 4 2 5 6 5 3 4 4 1 2 3 4 2 1 4 5 4 3 5 4 5 11 12 14 17 17 17 17 16 16 16 16 16 16 16 16 15 16 14 13 14 14 14 14 14 13 11 12 10 11 11 9 8 8 7 11 14 14 13 12 11 10 10 10 9 8 6 7 10 11 11 10 11 11 10 10 9 9 7 7 9 10 9 7 6 7 4 3 4 4 4 1
3 3 4 4 5 5 2 4 5 6 5 3 4 3 3 1 3 2 2 3 5 6 5 6 6 6 10 10 13 17 16 17 17 15 15 15 15 16 17 18 19 19 19 18 16 16 17 17 16 16 15 13 13 14 13 12 10 9 9 8 9 12 14 14 14 13 12 12 11 11 9 7 11 14 12 12 11 12 12 11 11 11 10 9 7 8 10 10 8 7 7 5 4 4 3 5 4
3 4 5 6 3 4 2 6 6 6 5 4 4 3 2 0 4 2 2 3 4 4 3 5 8 10 11 11 13 16 15 16 16 15 15 14 14 14 16 17 19 20 20 20 18 18 19 19 18 17 17 16 15 16 16 14 13 10 11 12 11 12 12 13 15 15 14 13 12 11 10 10 13 15 13 12 13 13 14 13 13 13 12 11 10 9 10 11 10 9 8 7 6 4 2 4 6
3 5 7 8 5 5 4 7 5 4 2 3 2 1 2 2 2 2 3 4 3 2 4 4 0 3 10 13 13 14 13 13 14 15 15 16 15 14 14 15 16 18 19 20 20 20 20 20 20 19 19 19 18 18 18 17 15 14 14 14 14 15 14 12 12 15 15 15 15 13 13 13 14 15 14 13 14 15 16 16 14 14 13 12 11 10 11 12 12 12 10 8 7 5 4 5 8
4 6 7 7 7 8 1 6 2 2 1 3 1 2 2 2 3 4 6 6 3 4 6 7 7 8 11 15 12 10 10 11 14 16 16 17 18 17 15 15 15 15 17 18 19 19 20 21 21 21 20 21 21 20 19 19 19 18 17 16 17 18 17 15 13 15 17 17 18 17 17 16 15 17 17 15 15 13 14 15 13 12 11 12 12 11 12 12 12 13 11 9 7 7 7 8 8
8 7 6 8 8 10 2 5 1 0 1 2 2 3 2 4 4 2 4 6 5 1 6 7 6 8 9 10 9 8 9 11 14 17 18 18 18 19 17 16 15 15 16 17 17 17 19 20 21 22 21 21 22 21 20 20 21 20 19 19 20 19 19 19 17 17 18 19 20 19 19 20 18 17 17 16 16 14 14 15 13 12 13 14 14 12 12 13 13 13 13 11 9 9 10 10 9
10 8 5 9 7 5 1 4 3 2 2 0 0 2 4 6 2 1 4 4 5 3 5 6 6 6 5 6 8 7 8 10 13 15 17 17 17 17 17 16 15 16 17 18 18 18 19 20 21 22 22 22 22 22 21 21 22 21 21 21 21 21 21 20 20 19 19 19 20 20 20 22 21 17 16 16 17 17 17 17 17 16 16 16 15 14 13 14 15 14 14 14 13 12 12 12 10
8 8 6 10 9 3 2 3 5 4 4 3 3 5 7 5 1 1 7 7 7 5 5 6 5 5 5 5 7 7 7 9 13 14 16 17 16 16 18 18 17 17 18 19 20 21 20 21 22 23 23 23 22 22 22 22 22 22 22 22 22 22 23 22 21 20 20 20 20 20 20 21 21 17 16 17 17 17 18 18 19 19 19 17 16 17 16 15 17 16 16 16 15 14 13 13 11
5 6 7 11 12 8 5 5 6 5 4 4 5 6 8 4 3 3 7 8 9 8 6 7 6 6 6 6 7 8 8 10 13 14 14 15 16 17 18 20 20 20 19 19 21 22 22 22 24 24 24 24 24 24 24 24 24 23 23 23 23 23 24 24 23 22 21 21 20 20 20 20 20 19 18 18 18 18 18 19 19 19 19 18 17 18 17 17 17 17 17 16 15 14 14 13 12
7 6 7 9 11 11 5 5 6 5 4 6 6 6 8 4 4 5 5 5 5 7 8 8 7 7 7 7 7 7 9 11 14 14 14 15 18 19 19 21 23 22 21 22 22 22 23 23 24 25 25 25 26 26 26 25 25 25 23 23 24 23 24 25 25 25 24 22 21 21 21 21 21 22 20 18 19 19 19 20 20 20 19 18 18 18 17 18 18 18 17 16 15 15 15 14 13
8 7 7 8 10 10 6 5 7 5 4 6 4 5 7 7 8 8 8 8 5 6 7 7 8 7 6 7 6 6 9 11 13 14 16 17 19 20 21 23 24 24 24 24 23 23 24 24 24 25 25 26 28 28 27 26 26 25 25 24 25 24 25 26 26 26 26 24 23 22 21 21 21 21 21 20 19 19 18 19 20 21 20 19 17 18 18 18 19 19 17 17 18 17 17 17 15
4 5 5 6 7 8 8 8 8 8 6 6 5 3 6 8 12 13 12 13 10 8 8 7 7 7 7 7 6 6 8 11 12 15 19 19 20 21 22 23 23 24 25 24 24 25 25 25 25 25 26 27 29 30 28 28 27 26 26 26 25 25 25 27 26 26 27 26 25 24 22 23 22 20 20 22 21 21 20 19 19 20 19 18 17 18 19 20 21 21 20 20 21 20 19 19 18
4 5 5 5 6 6 7 10 10 9 7 9 6 5 6 6 8 10 10 11 10 8 8 7 6 6 6 6 7 7 8 11 15 17 18 20 21 21 22 22 23 24 24 25 25 26 27 26 26 27 27 28 29 31 30 29 28 27 26 27 27 26 25 26 26 25 26 27 27 26 25 24 24 21 19 22 23 23 23 22 21 20 18 18 18 19 20 22 23 23 22 22 22 22 22 21 19
4 6 6 7 6 5 6 8 12 10 6 10 7 4 5 8 9 10 8 9 11 9 8 7 7 7 7 6 7 7 8 12 17 18 18 20 21 21 22 22 22 24 25 26 26 26 27 28 28 28 28 29 30 32 32 30 29 27 27 27 27 27 26 26 26 26 26 27 28 28 28 27 26 24 22 23 24 23 24 24 22 20 19 19 19 21 21 23 24 24 24 23 22 21 21 21 20
6 7 7 7 7 5 4 4 10 11 5 8 9 5 3 6 6 5 4 6 10 8 6 7 7 7 7 6 5 5 5 8 12 15 18 20 22 22 22 22 23 25 26 26 26 26 28 29 29 29 29 30 31 32 32 32 30 29 28 27 27 28 27 27 27 27 26 27 28 29 30 29 28 27 26 25 24 24 24 24 23 21 20 21 21 22 23 23 24 25 25 25 23 21 20 20 20
6 7 7 7 7 5 4 2 6 10 7 8 11 9 7 7 5 1 2 3 5 5 6 6 6 5 6 5 4 5 4 5 7 12 18 20 23 23 22 23 25 25 26 27 27 27 28 29 30 30 30 30 31 31 31 32 31 30 28 27 27 27 28 28 28 28 28 28 29 30 30 30 30 29 28 27 26 26 25 24 24 22 21 22 23 23 23 23 24 25 25 25 24 22 21 21 20
8 8 6 6 7 7 7 4 5 10 10 9 10 10 9 10 10 7 4 2 4 6 7 6 6 6 6 6 5 6 6 6 7 12 18 20 22 23 23 24 25 27 27 28 29 28 28 28 30 31 31 30 30 30 30 31 30 29 28 28 27 27 28 29 30 30 30 30 31 32 31 31 31 30 30 29 28 28 27 26 25 23 22 23 24 24 24 25 25 25 26 25 25 24 23 22 20
8 5 3 5 8 8 7 5 6 11 10 9 10 10 8 10 11 10 9 8 8 8 7 6 7 7 6 6 6 6 7 6 8 13 17 19 20 21 24 25 26 27 28 28 29 29 28 28 29 30 32 31 29 28 28 30 30 29 29 28 29 30 30 31 32 32 32 32 33 33 33 32 31 31 31 31 31 30 29 28 26 25 24 24 26 26 27 27 27 27 27 26 25 24 25 24 22
3 2 2 6 8 7 7 7 8 11 8 8 10 10 9 10 11 9 8 9 9 8 8 7 7 7 7 7 7 7 7 7 10 15 18 19 19 20 22 26 27 27 27 28 28 28 29 29 29 30 31 31 30 29 30 31 32 31 30 31 32 33 33 32 33 34 34 34 34 33 34 33 32 32 31 32 32 32 31 29 28 27 26 27 28 29 29 28 27 27 28 27 25 25 25 25 24
3 2 2 5 7 7 7 6 4 5 4 4 6 8 9 9 10 10 8 8 8 7 7 8 8 7 6 7 8 8 7 7 9 13 17 20 20 21 21 23 26 26 26 27 27 28 29 30 30 30 30 31 32 33 32 33 34 34 34 35 36 34 33 34 35 36 36 35 34 34 34 34 34 34 33 33 32 32 33 32 30 29 29 30 30 29 29 29 28 27 28 28 27 27 25 23 24
5 3 3 4 5 6 7 3 5 4 1 2 5 7 7 7 8 10 10 8 7 8 9 9 9 8 7 7 8 8 7 7 8 10 14 18 21 22 22 23 25 26 26 26 26 27 28 29 31 30 30 32 34 34 34 35 36 37 36 35 35 33 32 34 35 34 34 34 35 35 34 34 34 35 35 34 34 33 34 34 33 31 31 32 32 31 31 30 29 29 29 29 27 27 26 24 24
6 5 4 4 5 5 4 3 5 4 2 2 4 6 6 6 7 10 11 9 7 8 10 11 10 10 10 9 8 8 8 8 8 8 10 15 19 20 22 25 26 26 26 26 25 26 27 29 30 30 31 33 34 35 36 36 35 35 34 32 31 30 29 30 31 31 32 34 35 35 36 36 35 36 36 36 36 35 34 35 35 34 33 33 34 34 33 33 32 31 31 30 28 25 26 27 26
6 6 7 6 4 5 4 1 3 4 2 2 3 5 6 5 8 11 11 11 11 12 12 13 13 11 10 10 8 8 8 8 8 9 9 11 15 18 21 24 25 26 27 27 27 27 27 28 29 31 32 33 33 34 35 35 32 31 31 28 26 26 26 25 28 31 33 34 36 38 38 37 36 36 36 36 37 37 35 35 35 35 34 34 35 36 35 35 34 34 33 32 31 28 26 26 27
6 6 8 7 5 6 6 3 3 1 2 4 3 3 4 4 8 11 10 11 12 12 14 15 14 11 9 8 8 8 8 9 10 11 11 10 12 15 17 19 21 24 26 26 27 27 27 27 28 30 32 33 33 33 34 34 33 31 30 29 27 27 27 28 32 34 36 37 37 38 37 37 37 36 36 36 38 38 36 36 35 36 35 34 35 36 35 34 34 35 35 35 35 34 29 24 25
4 3 3 6 8 8 7 3 2 2 2 2 5 4 5 2 5 8 7 9 10 9 10 13 12 10 8 7 7 8 8 9 10 11 10 10 11 13 14 15 16 19 22 23 23 24 26 26 27 29 31 33 33 32 32 34 35 33 33 33 33 31 30 31 34 34 34 36 35 34 34 35 36 36 37 37 37 38 37 36 36 36 35 34 34 35 35 34 35 36 36 36 36 36 32 26 25
2 2 4 3 3 4 5 5 3 2 1 3 2 3 4 7 5 6 8 10 13 12 9 8 8 8 7 6 7 8 9 9 8 8 9 9 11 13 14 15 15 17 18 19 21 22 23 25 27 28 29 31 32 32 33 34 36 35 34 34 34 34 33 32 31 32 32 32 31 32 33 34 35 36 38 38 38 38 38 37 36 36 36 34 34 35 36 35 34 35 35 36 36 35 35 34 29
2 2 5 7 6 5 3 3 3 2 2 3 4 3 4 9 4 6 9 12 14 14 11 9 7 7 7 7 8 9 9 8 7 8 8 9 11 13 14 14 14 15 15 16 19 21 22 23 24 26 29 30 31 32 33 34 36 36 34 34 33 34 34 32 30 30 32 31 30 31 31 33 34 36 38 39 39 39 39 38 37 37 37 36 35 36 36 35 35 34 35 36 37 36 37 37 34
3 1 6 7 6 6 6 4 3 4 2 6 7 5 5 10 4 5 7 9 10 11 8 8 8 7 8 8 9 9 7 7 7 5 5 7 9 11 12 12 13 14 14 15 17 19 20 21 22 25 28 29 30 31 31 33 35 35 35 35 35 34 33 32 29 29 30 31 31 31 31 33 34 35 37 39 40 40 39 39 38 39 39 38 37 36 36 36 35 35 35 37 38 38 37 37 36
4 4 6 6 6 5 4 3 4 3 4 8 10 9 7 9 4 5 5 5 7 6 4 6 8 8 8 8 8 7 6 6 3 3 4 4 6 9 10 12 14 13 13 14 16 17 19 20 22 23 26 27 28 28 29 31 33 35 37 37 37 36 33 30 29 29 29 30 31 32 32 32 33 34 35 37 40 40 39 40 40 40 40 39 39 39 38 37 37 36 35 36 37 38 38 37 37
5 5 4 4 4 3 3 2 2 2 7 7 9 11 9 9 5 2 3 4 4 5 6 6 6 7 6 7 6 6 6 4 4 6 4 4 5 8 10 13 14 13 13 13 15 17 18 20 21 23 24 25 25 26 27 29 32 34 37 37 35 34 31 29 30 30 29 30 31 31 31 31 32 33 34 35 38 40 40 41 41 41 40 40 41 41 40 39 37 37 36 36 37 38 38 37 36
5 6 5 2 1 1 0 1 2 4 6 4 5 9 8 10 11 9 10 9 7 5 5 5 4 3 5 6 5 5 4 2 4 5 4 4 5 7 9 12 12 11 11 11 13 14 17 19 19 22 24 23 23 25 27 29 31 34 35 35 34 33 31 30 31 30 30 30 30 30 30 30 31 32 34 36 38 39 40 41 41 41 42 42 42 42 41 41 38 37 37 37 37 38 38 38 38
8 7 7 5 4 2 2 3 1 2 4 4 4 7 5 5 8 9 12 14 14 10 7 6 5 6 7 6 5 6 4 1 1 2 3 4 5 6 7 10 10 9 9 9 11 12 15 17 17 20 22 21 21 23 26 28 30 32 33 33 34 33 32 32 32 32 32 31 31 30 30 31 33 34 36 37 37 38 39 41 41 42 43 43 42 42 41 40 39 38 38 39 39 39 39 38 39
9 6 5 6 6 4 3 3 1 1 2 4 3 4 3 3 2 5 7 8 10 12 10 8 7 7 7 6 6 5 4 4 3 3 4 4 5 6 5 6 8 9 9 8 10 11 12 15 16 18 20 20 20 21 24 27 29 30 31 32 33 33 33 33 33 34 33 32 32 32 32 33 34 36 37 37 36 36 38 40 41 41 42 42 42 42 40 39 39 39 38 39 39 40 39 38 39
5 4 4 5 5 5 1 1 3 2 2 3 3 2 2 3 8 13 11 9 7 5 6 7 8 8 7 5 6 5 5 6 3 2 2 3 6 6 3 3 6 10 11 10 10 11 11 13 15 17 19 18 18 19 22 25 27 28 30 31 33 33 33 33 34 35 34 34 34 34 34 35 35 35 35 35 35 36 37 39 40 42 42 42 42 42 41 39 39 39 39 38 39 39 38 39 39
4 5 5 3 2 5 3 1 3 2 3 4 3 4 5 5 11 12 9 9 7 5 5 5 7 7 6 6 6 6 5 5 2 3 3 5 6 5 1 1 5 9 12 12 11 10 11 12 13 16 17 18 18 18 20 23 25 27 29 30 31 32 33 33 34 35 34 34 34 34 35 35 34 34 34 33 34 35 37 38 40 41 42 42 42 41 41 40 40 39 39 38 39 39 38 38 38
4 5 6 3 4 2 3 2 3 3 6 5 5 8 5 3 6 6 5 7 7 7 7 6 7 6 6 7 6 5 6 4 3 4 4 3 4 4 3 2 4 7 12 13 11 11 11 11 12 13 15 16 17 17 19 21 23 25 28 29 31 31 32 33 34 34 33 33 33 34 35 34 34 34 32 32 32 33 35 38 39 40 41 42 41 41 41 41 41 40 39 39 39 39 38 37 37
2 4 8 6 1 2 4 3 3 5 6 4 4 7 6 6 7 7 8 9 7 7 7 7 8 8 7 7 6 6 5 2 4 2 0 2 5 6 5 5 6 8 13 14 12 13 13 13 13 12 13 14 14 15 16 19 21 24 27 28 30 31 32 32 32 32 32 32 32 33 33 33 34 33 32 32 32 32 33 36 38 39 39 40 40 40 41 41 41 40 39 39 39 39 38 37 36
3 3 6 5 2 2 5 4 2 3 5 5 4 5 4 7 8 8 10 10 8 9 8 8 9 7 5 4 5 5 3 4 5 4 4 4 5 7 9 12 12 11 14 15 14 15 15 15 15 14 14 14 14 14 14 16 18 21 25 27 29 29 29 30 31 31 31 32 33 33 33 34 34 33 33 34 33 33 34 35 36 37 37 38 38 39 40 40 40 40 39 39 39 39 38 37 36
5 5 6 6 3 1 1 3 2 2 3 4 5 5 3 4 6 8 9 8 9 9 8 8 5 2 5 6 5 4 5 6 5 5 3 3 5 8 13 20 19 16 15 16 15 14 14 16 17 16 16 16 16 17 16 16 16 17 20 25 27 28 28 28 29 30 31 33 34 34 35 34 33 33 34 34 34 34 35 35 35 36 36 36 37 38 39 39 39 39 39 39 38 38 38 37 36
9 7 9 9 7 4 2 4 3 2 2 2 3 5 5 3 3 4 7 6 6 4 2 2 2 6 7 6 5 4 5 6 5 3 2 2 4 8 14 20 22 18 16 16 15 14 13 16 18 18 17 17 18 19 18 17 17 16 18 21 24 26 27 28 28 30 32 33 34 34 34 33 33 34 33 33 34 34 35 35 35 35 36 36 37 37 37 38 38 38 37 37 37 38 38 38 37
Wind_Direction
340 340 339 337 322 311 305 279 268 268 219 257 112 100 65 51 93 118 100 116 106 68 47 51 51 25 30 354 27 62 47 35 43 37 65 145 152 164 154 126 130 132 136 151 156 156 150 148 143 141 134 127 128 130 131 129 136 138 136 132 129 128 121 114 99 92 89 86 93 92 91 89 90 95 96 100 98 97 98 93 92 93 94 94 93 93 92 91 86 87 91 89 89 91 88 86 84
340 339 338 338 319 300 305 289 287 279 246 247 64 76 113 112 110 86 73 71 68 67 54 50 54 43 13 318 307 78 65 57 74 78 105 138 143 148 134 128 137 134 138 148 151 155 154 157 150 143 140 136 133 132 135 130 138 141 138 133 130 129 124 117 97 87 84 76 92 99 96 93 93 97 98 101 100 97 98 94 93 94 93 93 94 96 96 95 91 91 95 92 91 91 88 86 85
340 337 333 336 323 264 272 290 253 283 295 42 76 94 151 111 75 68 64 67 67 68 59 49 66 51 301 292 337 52 82 77 92 95 118 144 141 142 141 134 143 140 142 144 144 154 162 164 154 143 138 141 140 134 136 135 139 136 133 132 127 123 120 115 94 86 85 73 95 107 101 99 101 102 101 101 101 97 97 96 96 97 96 96 95 97 98 96 93 93 95 94 95 93 91 89 87
336 331 321 325 327 272 278 253 249 294 318 35 85 96 86 81 79 71 69 71 59 65 75 102 104 61 327 350 4 45 88 76 101 115 137 161 150 146 150 141 146 142 143 146 145 156 171 169 153 144 137 141 143 137 140 138 135 125 121 126 120 117 117 115 102 88 86 85 102 111 106 106 105 106 106 101 101 100 100 102 100 97 96 98 96 96 97 97 96 97 97 96 96 94 92 89 86
329 322 308 297 325 317 303 289 278 281 320 20 83 69 64 78 88 83 78 76 50 38 13 313 66 105 66 8 349 53 107 79 94 116 124 141 142 145 151 145 146 143 145 148 150 164 178 176 157 150 143 139 141 143 146 142 137 130 128 128 110 101 110 116 113 87 78 96 110 116 114 110 106 107 105 101 106 109 107 101 96 97 100 99 99 102 101 103 105 104 102 97 96 94 91 88 84
320 320 306 264 257 311 278 286 272 225 346 33 88 68 68 83 92 96 92 85 65 51 1 322 32 354 116 74 52 48 68 118 106 113 120 127 138 145 152 150 147 147 150 149 155 171 178 179 166 158 150 137 141 145 151 155 150 143 148 155 136 123 120 120 117 92 89 108 119 123 120 113 111 112 110 109 113 112 105 100 103 105 103 103 103 105 104 106 108 107 105 100 98 96 92 88 83
312 321 311 249 251 281 250 274 271 244 17 33 85 89 86 95 102 113 119 114 101 94 353 354 12 328 148 102 74 52 52 106 110 105 126 135 140 145 152 152 148 151 152 148 162 175 171 178 171 164 154 137 143 148 150 157 158 152 154 154 149 154 147 144 139 123 119 127 136 134 128 120 114 114 117 116 110 109 108 109 118 109 104 108 107 107 107 109 108 109 106 103 102 98 94 88 82
300 296 337 315 291 241 245 271 277 35 64 47 69 78 96 113 125 133 132 135 122 131 156 80 340 318 189 145 96 74 69 92 103 110 126 134 141 147 150 153 153 153 150 153 171 176 165 174 174 173 162 148 149 148 151 156 163 160 153 144 138 143 147 152 147 139 145 149 152 148 136 127 114 112 121 123 118 117 117 117 119 113 115 116 112 114 114 111 109 110 107 106 105 99 94 85 79
298 256 245 307 272 265 262 258 268 94 117 111 84 70 88 115 139 139 132 121 117 126 130 113 22 3 315 65 101 102 91 100 109 119 127 133 142 150 153 156 155 152 149 159 178 179 171 176 179 184 172 161 155 151 160 160 163 159 151 150 145 140 136 135 138 141 155 161 162 156 141 135 117 107 120 129 128 124 121 123 123 122 125 121 117 119 117 113 112 113 110 109 105 99 90 81 75
301 238 244 312 281 280 262 249 261 95 111 109 110 124 116 124 147 150 141 122 129 130 94 71 41 288 308 85 108 114 117 124 123 126 131 135 143 153 159 159 154 152 151 155 176 187 185 181 184 195 185 167 159 157 164 158 157 157 152 153 152 150 135 131 142 145 147 157 168 160 146 140 128 119 126 129 126 124 131 134 129 129 129 128 129 125 120 118 119 117 115 118 109 100 88 79 73
305 238 168 294 275 266 261 283 299 87 101 99 109 126 131 137 142 157 129 109 115 114 107 121 171 233 261 102 97 115 128 136 133 133 136 138 146 154 160 154 149 154 157 152 164 188 177 180 190 200 194 174 161 161 161 156 155 157 156 155 160 158 144 151 163 153 140 141 147 150 150 147 143 139 136 131 128 134 150 150 141 144 140 137 138 133 129 125 125 121 122 127 108 95 85 79 73
282 288 281 227 257 265 277 327 315 83 95 122 126 122 135 137 147 152 127 108 122 129 137 173 122 285 229 109 100 134 134 133 135 137 137 141 150 154 155 149 146 157 166 158 162 184 180 184 194 201 203 188 169 161 158 156 158 162 163 159 167 169 161 173 180 170 164 158 145 146 152 155 158 155 145 142 146 153 158 153 153 167 162 151 148 143 141 137 132 134 138 125 106 95 88 81 73
266 298 313 268 262 275 292 325 314 90 102 183 137 125 139 144 189 161 135 125 133 148 135 130 118 271 249 95 121 140 128 127 136 138 136 145 152 153 155 149 145 156 168 163 164 180 198 189 191 206 209 204 194 171 165 164 166 170 174 170 174 182 178 185 188 186 195 195 186 177 170 165 167 166 158 156 164 166 160 158 159 172 170 162 156 153 150 146 149 161 144 119 110 101 95 87 74
295 304 316 298 290 292 291 291 303 344 31 96 113 130 143 140 222 101 120 136 117 114 101 88 98 236 34 110 130 134 124 131 139 139 138 144 150 154 153 151 152 152 160 168 172 178 197 201 192 213 209 210 214 197 184 182 185 184 184 182 183 195 195 196 195 190 199 208 206 211 214 199 179 175 174 170 175 173 168 173 168 159 166 171 169 165 159 158 173 181 145 122 114 107 103 88 71
295 317 310 286 289 287 279 264 302 328 24 71 102 140 131 81 1 46 46 71 85 91 106 87 33 3 324 118 130 134 136 139 141 142 139 139 147 156 152 154 165 165 167 174 183 185 196 203 196 215 218 199 212 211 201 196 202 201 194 191 194 206 208 209 208 200 205 213 213 226 235 223 206 195 192 190 190 185 182 189 186 176 174 183 185 176 173 176 189 186 146 133 121 117 113 88 69
239 319 308 269 275 278 300 300 258 285 61 95 126 145 130 87 12 58 33 29 98 134 118 105 95 341 9 60 115 132 140 143 144 143 140 139 146 158 157 156 170 179 181 182 192 193 195 200 198 215 225 190 204 218 205 202 202 206 206 201 203 210 215 218 216 215 216 216 216 227 234 224 218 216 216 217 215 205 206 209 199 198 196 198 201 191 187 187 195 187 155 148 136 127 119 93 65
204 280 270 259 263 261 281 287 224 159 120 130 153 161 158 128 92 89 108 317 108 141 174 116 125 75 71 98 122 130 139 145 145 145 144 146 150 157 165 168 175 184 187 188 197 198 197 201 201 209 216 198 210 220 207 214 206 201 213 210 210 211 216 221 223 228 224 223 225 226 229 227 227 230 232 232 230 223 224 223 208 212 222 216 219 213 199 190 195 191 172 168 151 128 140 106 59
229 215 237 250 253 254 278 326 358 97 119 123 151 194 208 138 141 123 114 226 171 151 177 136 120 99 103 119 131 133 141 147 149 153 152 156 161 162 170 179 182 188 190 191 198 200 200 203 203 205 208 201 210 218 209 221 223 207 214 215 217 217 218 224 228 233 229 230 231 227 226 225 236 242 238 233 226 222 225 228 221 227 236 228 228 223 208 195 196 195 186 183 149 121 153 127 57
222 243 244 237 247 271 6 17 22 40 64 96 122 202 349 105 133 139 170 206 189 179 197 169 173 147 120 127 139 141 146 153 160 165 165 168 173 172 174 180 185 190 193 193 195 198 202 205 205 205 206 200 203 210 208 220 231 221 218 217 219 221 224 227 230 232 232 234 231 230 222 206 225 233 231 230 227 224 225 226 230 238 242 237 233 229 220 209 202 199 196 191 149 136 169 172 81
211 231 251 247 256 284 13 49 43 36 6 49 95 54 8 68 115 144 216 239 207 196 204 185 196 187 149 146 150 151 154 160 170 177 177 181 184 180 178 181 186 192 194 193 194 196 200 204 205 204 206 204 201 203 206 215 229 223 211 213 217 220 225 228 230 232 233 233 229 227 214 200 219 225 225 230 233 233 230 226 232 241 243 245 242 236 230 223 217 207 203 195 159 149 186 203 225
208 209 240 255 269 302 21 65 50 43 10 11 60 51 319 259 104 141 211 269 249 218 228 191 200 198 166 156 156 160 162 164 177 185 184 189 196 193 188 188 191 194 195 194 196 198 199 202 204 203 204 205 202 202 204 208 220 215 200 208 215 219 223 222 225 228 227 222 221 215 202 212 225 224 229 237 244 247 241 232 234 244 243 244 247 245 235 227 224 217 213 204 180 167 176 201 219
241 245 245 258 276 305 34 66 43 41 10 331 34 349 317 46 95 182 214 248 240 124 20 33 105 195 152 150 155 164 169 170 180 191 191 192 198 202 200 198 196 195 195 195 197 200 200 201 203 204 204 205 206 205 204 205 211 210 202 203 208 215 221 217 214 218 217 212 215 210 198 220 231 222 227 240 251 254 246 239 241 247 243 239 242 246 240 227 222 221 220 211 193 188 202 210 207
238 258 257 262 270 273 3 78 21 28 339 292 351 338 8 358 267 218 206 228 233 98 68 52 39 46 110 138 152 167 176 178 183 192 197 195 197 201 203 203 199 195 194 198 200 201 202 203 203 205 205 206 208 207 204 206 208 209 208 205 203 210 217 217 209 209 214 212 213 212 205 219 231 227 228 235 247 248 237 237 242 244 236 233 235 241 237 223 223 222 217 216 198 197 218 220 212
233 240 252 256 251 257 251 102 138 107 261 317 19 340 316 274 275 253 217 222 242 39 91 94 81 77 109 138 154 174 184 187 191 195 199 202 203 202 203 203 200 197 196 200 203 204 205 204 204 206 207 206 208 207 204 208 211 210 210 210 207 208 212 215 211 206 212 212 213 216 214 218 226 234 233 229 237 237 225 227 232 234 231 228 226 237 232 212 220 219 211 221 212 207 218 221 226
243 241 251 268 259 257 315 114 158 220 233 158 9 279 264 258 292 338 260 246 246 232 132 122 117 123 144 159 160 178 191 194 196 198 199 204 208 206 207 206 203 201 199 201 202 204 207 206 205 206 208 208 208 208 206 210 214 213 210 212 212 209 209 211 211 209 211 214 218 222 219 219 223 231 235 228 231 230 223 223 221 223 229 226 219 226 227 212 217 215 210 218 215 212 214 220 229
237 231 228 259 263 233 216 207 195 221 229 184 211 244 251 246 69 243 240 246 254 242 167 147 149 162 178 182 177 186 192 197 198 200 202 202 206 207 207 207 206 207 205 204 204 204 206 207 206 206 208 210 210 210 210 211 213 214 213 214 214 212 212 211 211 212 213 217 221 223 221 220 218 220 228 230 229 229 225 224 219 218 222 223 219 217 217 217 218 213 213 216 214 216 216 223 226
237 235 233 242 255 248 204 206 219 218 223 218 223 245 256 225 152 227 232 233 236 235 203 165 175 195 199 204 199 196 196 204 202 200 202 198 202 208 207 206 208 211 209 207 208 207 206 206 207 207 206 208 210 211 212 213 213 216 215 214 215 215 216 214 212 212 212 216 219 223 223 220 215 210 218 227 228 228 229 228 226 223 220 219 220 216 211 216 218 214 216 216 215 218 218 224 223
252 251 267 250 251 256 200 175 228 225 213 218 226 252 261 231 193 223 246 254 225 223 217 183 191 204 210 219 209 201 197 207 205 197 198 197 201 207 208 207 208 210 210 211 210 208 207 206 208 208 205 206 209 211 212 213 213 215 217 216 217 218 219 217 214 214 215 217 218 223 227 223 216 209 209 221 229 228 228 229 230 229 228 224 221 218 213 213 216 215 217 217 217 220 220 222 224
259 243 265 267 251 247 207 188 220 221 210 188 197 262 249 230 232 224 226 243 217 210 223 204 202 196 206 223 218 208 191 200 205 197 203 207 207 208 210 212 210 210 213 214 211 210 211 210 210 210 208 206 208 210 211 213 212 213 216 217 218 219 222 220 217 219 221 220 217 219 227 226 222 214 206 212 224 228 228 228 230 232 233 233 226 221 216 212 215 213 214 217 216 217 218 218 221
268 248 250 265 256 238 207 204 211 216 210 159 151 255 237 223 234 226 213 220 217 209 217 221 214 191 198 209 210 216 193 192 202 205 210 212 212 210 212 214 213 213 215 215 212 214 216 214 212 211 210 208 209 210 211 213 212 211 214 216 217 219 223 224 221 222 221 221 219 217 220 225 229 225 210 210 217 220 226 227 229 232 233 233 226 221 217 212 215 212 212 218 216 215 215 215 218
226 242 239 233 245 238 205 198 197 208 197 155 166 242 251 248 249 246 225 205 211 222 219 224 229 214 211 205 201 212 203 193 198 209 214 215 216 215 214 213 212 215 215 214 215 217 217 216 215 213 212 210 210 211 210 212 213 211 213 214 215 218 223 225 224 223 221 220 221 218 216 220 229 228 214 214 218 217 222 224 225 229 230 229 222 219 218 214 214 213 213 219 219 219 222 224 227
210 223 230 219 229 237 226 208 189 196 187 162 183 240 250 253 254 261 249 192 192 216 224 224 229 228 227 221 210 210 209 198 194 204 215 218 220 219 218 214 212 214 216 216 217 218 217 217 217 215 214 213 212 213 211 211 213 214 214 214 214 216 221 225 224 224 223 222 222 222 220 217 221 224 218 217 220 219 222 223 223 225 225 224 220 216 218 217 215 214 215 219 221 223 228 231 232
209 218 229 217 219 221 235 232 183 185 182 173 204 240 240 248 245 248 257 194 185 196 218 234 240 235 235 235 229 225 218 195 186 200 214 219 221 221 222 218 215 216 218 219 219 217 216 216 217 216 216 217 215 214 212 211 213 214 215 216 215 215 218 223 223 222 223 223 223 225 224 219 217 220 219 219 220 219 222 225 222 221 220 219 218 215 217 218 216 215 216 219 221 222 226 230 228
210 218 235 230 225 213 198 201 172 182 195 195 211 231 240 259 271 299 47 112 158 192 218 236 248 251 254 258 255 251 234 205 189 202 217 224 223 223 224 223 222 219 220 222 221 221 220 217 216 218 219 219 217 214 213 213 213 214 214 216 218 217 218 221 223 222 222 222 222 222 223 222 219 217 217 217 220 219 219 223 222 218 218 218 217 216 217 217 215 216 217 218 219 220 222 226 226
206 211 226 237 227 221 212 201 169 183 208 218 216 225 232 250 263 263 265 190 174 215 223 222 234 242 248 248 246 246 235 226 216 213 222 229 227 222 223 226 225 222 222 223 223 223 222 220 218 219 219 217 217 215 214 215 214 214 214 214 218 219 218 220 222 223 223 223 222 222 223 223 222 220 218 215 218 221 219 220 222 217 216 218 217 215 217 216 214 215 217 218 219 221 222 223 226
206 220 243 248 234 223 218 217 184 184 208 224 226 236 233 239 251 248 249 238 213 216 218 216 227 234 242 242 237 237 236 234 230 229 233 235 231 223 221 224 226 225 223 222 223 222 220 220 218 217 219 217 213 211 211 212 211 212 213 213 215 217 218 218 220 222 223 225 225 225 223 223 224 224 222 218 216 220 220 219 220 217 214 217 217 214 215 216 215 215 217 219 219 221 225 224 225
191 78 304 263 256 235 214 220 194 182 203 220 222 239 242 246 255 247 242 245 236 227 223 220 220 221 227 234 235 233 234 234 235 237 239 240 239 231 223 222 223 223 224 223 222 221 220 221 218 217 219 216 210 208 207 207 206 207 209 212 215 217 217 216 219 221 222 225 227 226 225 224 225 226 226 222 217 217 219 218 219 219 213 214 218 217 217 217 218 218 219 220 220 220 223 224 223
184 112 267 264 256 249 239 231 165 154 196 231 231 243 242 244 258 259 249 247 250 248 244 241 235 228 218 220 229 230 228 229 231 235 237 239 241 238 231 225 220 218 222 223 224 225 224 222 220 219 218 215 212 211 208 207 208 209 210 212 215 216 217 217 218 220 222 224 226 226 226 226 226 226 226 224 219 217 218 217 217 220 216 214 217 218 219 219 219 219 219 219 220 221 222 223 220
197 173 246 267 243 251 258 212 114 109 169 261 262 264 259 256 263 266 258 247 247 246 248 250 248 246 234 224 227 230 229 227 226 229 232 235 238 238 234 228 223 220 223 226 228 230 228 225 222 220 218 216 216 214 211 211 212 213 214 215 216 216 218 220 220 221 221 224 225 225 227 228 226 225 226 225 222 220 219 217 216 218 218 216 216 217 217 218 218 218 218 217 217 220 224 225 221
205 171 203 250 230 220 229 169 147 159 191 275 281 277 274 278 281 279 272 261 253 247 245 247 244 242 240 234 231 229 228 229 228 230 231 233 235 233 230 228 226 224 226 229 231 231 230 227 224 221 220 220 219 216 215 216 216 216 218 220 220 219 220 222 221 221 222 224 225 225 225 226 226 225 225 225 224 222 220 219 216 215 217 217 216 215 215 216 216 216 215 215 214 214 219 223 222
214 188 203 235 241 243 254 185 182 181 198 266 314 302 269 244 248 257 262 259 252 248 245 248 245 239 239 240 239 235 234 237 237 238 238 236 233 230 228 228 225 224 227 230 232 232 231 229 226 224 224 223 221 219 218 217 216 215 216 218 219 218 218 218 215 216 220 223 224 224 224 224 224 224 224 224 224 223 221 220 218 216 216 217 217 216 216 216 215 215 214 213 212 211 214 218 219
213 199 217 237 243 264 263 198 176 186 239 205 159 289 268 210 228 239 243 245 244 238 233 238 243 241 238 237 240 243 241 239 238 239 241 242 241 239 236 232 223 221 228 233 235 235 233 231 229 227 226 225 224 223 220 216 214 213 211 209 208 208 210 210 210 214 217 220 222 222 222 222 223 222 221 222 224 223 222 221 219 218 217 218 218 218 218 217 216 216 214 213 213 214 214 213 215
208 207 247 255 240 243 252 236 179 178 256 212 161 217 269 267 247 253 263 263 258 248 233 232 234 233 228 225 232 235 233 233 233 236 238 240 243 242 242 238 228 227 236 239 238 238 236 233 231 229 228 227 225 224 222 218 215 215 213 211 210 209 210 214 216 219 221 222 223 222 222 222 222 221 219 220 222 222 223 221 219 218 218 219 220 220 219 219 218 217 216 215 216 216 214 213 215
185 330 15 17 291 265 260 263 245 193 315 316 197 188 275 278 247 239 264 275 273 269 262 247 226 212 213 221 229 231 233 233 231 231 226 225 229 232 239 242 239 241 246 244 240 240 238 235 232 231 231 229 227 225 222 220 218 217 216 216 216 216 218 220 221 222 224 226 225 223 222 222 221 221 219 218 220 221 221 221 220 220 220 220 221 221 221 221 220 219 217 217 218 218 216 216 217
154 321 36 55 27 15 12 298 287 337 5 273 225 151 269 273 229 191 228 244 255 260 257 249 226 201 207 222 233 239 242 238 234 231 216 204 210 222 234 240 242 247 249 248 244 242 240 238 235 233 232 231 230 227 224 222 220 218 218 218 219 222 223 224 224 224 225 225 226 225 223 222 222 223 221 218 219 220 221 221 221 221 221 221 222 223 224 223 221 220 218 218 218 219 219 219 219
156 47 40 42 27 30 30 12 2 356 313 242 232 186 238 275 254 177 213 223 239 251 248 244 232 210 205 215 234 244 249 252 245 224 186 174 190 213 231 241 248 252 254 252 249 246 241 239 237 235 234 233 231 229 225 224 222 220 220 220 222 223 224 224 224 225 224 222 223 224 222 222 222 223 224 222 221 221 221 221 221 221 222 221 221 223 224 224 222 221 221 220 220 219 220 220 220
124 52 36 23 13 31 29 19 45 15 266 242 234 212 228 272 257 179 208 213 223 233 230 243 233 209 204 216 234 241 242 249 224 132 121 147 193 224 236 246 256 262 263 259 253 249 245 242 241 240 240 238 234 231 228 226 223 221 222 223 224 225 224 222 222 223 222 219 221 222 221 222 222 223 225 225 223 222 221 222 222 222 222 221 221 222 223 223 223 222 222 222 222 221 220 220 222
110 79 63 21 355 16 32 36 85 217 249 238 222 215 225 251 251 188 234 241 235 221 212 228 210 182 203 226 235 238 236 226 149 133 146 171 208 233 241 254 266 270 268 263 258 253 250 248 248 247 248 244 238 235 231 228 225 224 226 226 228 229 228 225 225 225 223 221 222 222 221 220 221 222 224 225 225 223 221 222 223 222 222 221 221 222 223 223 223 223 222 222 223 223 222 220 221
124 121 122 104 284 293 315 192 174 220 255 265 206 201 212 241 254 262 262 258 259 240 221 235 222 208 243 251 264 277 267 222 128 137 162 185 217 240 251 265 276 278 274 271 267 261 258 256 254 253 254 252 245 239 234 231 228 227 228 229 230 232 232 231 230 230 229 226 226 225 222 220 221 221 223 224 225 224 222 222 222 222 222 223 223 223 223 223 222 222 222 223 223 223 223 222 222
167 163 161 171 194 224 227 221 247 242 258 284 225 201 207 232 246 264 265 255 248 240 235 244 241 246 260 262 271 286 290 293 124 163 201 219 243 258 267 274 283 290 288 284 280 274 268 264 262 260 261 259 252 245 238 235 232 231 231 231 232 233 233 233 233 233 233 231 229 229 228 225 225 225 225 226 227 225 224 223 223 223 224 225 224 224 224 224 223 222 222 223 224 225 224 224 224
186 181 164 185 194 198 218 212 218 252 276 283 228 201 214 203 255 320 315 289 252 231 229 235 232 239 252 261 262 263 278 282 247 208 216 230 259 281 281 276 296 311 309 298 293 291 283 275 271 268 269 267 259 251 244 239 237 236 234 234 235 235 234 234 235 235 234 233 232 232 232 231 230 230 230 229 229 227 225 225 225 224 225 226 226 225 225 224 224 223 223 224 225 226 226 226 227
189 145 147 209 199 175 192 168 141 107 341 291 216 218 276 265 298 305 303 310 305 269 248 236 240 250 249 257 255 231 241 261 238 183 219 258 281 300 294 268 308 326 328 321 311 307 299 290 284 279 279 278 269 260 252 247 243 241 238 237 236 236 236 235 235 235 235 234 234 234 234 235 234 234 234 232 230 228 227 227 226 226 226 226 227 226 225 225 224 224 223 224 225 227 227 227 227
163 155 172 209 132 136 151 177 113 102 264 254 212 254 281 281 293 289 262 257 263 272 279 250 251 261 246 242 241 215 228 254 218 171 216 256 287 316 335 267 321 331 333 331 325 320 313 304 297 289 287 286 280 272 263 257 251 247 244 241 240 238 237 237 236 236 236 236 235 236 237 237 237 237 236 235 233 231 230 229 228 227 226 226 227 226 226 225 225 224 224 224 226 227 228 228 228
148 172 160 96 35 98 136 189 160 167 237 243 211 233 242 229 269 281 273 268 240 225 244 248 253 256 240 237 224 210 234 239 182 188 218 251 316 1 31 352 337 336 335 335 335 336 333 325 316 304 299 294 289 283 273 266 260 254 251 247 244 242 240 240 239 239 239 238 237 237 238 238 239 238 238 237 235 234 232 231 230 229 228 227 226 226 226 226 225 225 224 225 227 228 228 229 229
115 155 153 138 95 182 160 183 193 191 219 234 207 214 209 201 228 252 274 287 279 250 243 238 241 235 226 222 205 214 238 180 136 151 11 16 8 11 4 341 339 341 342 344 345 345 343 340 334 323 318 313 306 298 284 274 267 260 257 254 250 247 244 242 242 241 241 240 240 241 240 240 240 240 240 239 237 236 234 233 231 230 229 228 227 227 227 227 226 225 225 225 227 228 228 229 230
65 105 163 171 160 177 179 177 179 195 209 226 218 199 197 211 221 233 248 260 269 269 267 262 250 225 195 168 167 183 167 122 107 65 36 19 1 355 352 349 343 339 343 345 343 342 344 345 341 333 330 328 324 319 307 295 283 269 263 260 256 254 249 246 244 242 242 242 243 243 242 242 241 240 239 238 238 236 235 233 232 230 229 228 228 228 227 227 226 226 226 226 226 226 227 229 230
141 152 172 187 179 120 184 185 168 165 188 214 229 228 227 205 201 215 225 232 240 241 248 259 249 160 97 87 91 92 99 101 86 59 17 341 347 353 358 353 342 332 336 339 336 335 338 344 343 337 335 333 331 329 322 314 305 287 273 266 262 259 255 251 248 245 244 244 244 244 243 242 241 240 239 237 236 236 234 234 233 230 229 228 228 228 227 226 226 226 226 226 226 226 227 229 231
171 178 178 186 184 155 164 201 187 167 194 195 207 248 256 211 180 224 224 232 250 241 251 300 74 79 64 51 36 48 96 104 93 74 329 333 348 349 356 349 336 327 326 327 328 326 331 343 344 336 333 333 333 333 328 322 315 301 286 276 269 264 260 256 252 249 247 246 245 245 244 243 242 241 240 237 236 236 235 235 233 231 230 229 229 229 228 227 226 226 226 225 225 226 228 230 231